Index of /20260410/WXO-DD/model_rdps/10km/00/018
Name Last modified Size Description
Parent Directory -
20260410T00Z_MSC_RDPS_AbsoluteVorticity_IsbL-0250_RLatLon0.09_PT018H.grib2 2026-04-10 02:51 495K
20260410T00Z_MSC_RDPS_AbsoluteVorticity_IsbL-0500_RLatLon0.09_PT018H.grib2 2026-04-10 02:51 566K
20260410T00Z_MSC_RDPS_AbsoluteVorticity_IsbL-0700_RLatLon0.09_PT018H.grib2 2026-04-10 02:51 617K
20260410T00Z_MSC_RDPS_AbsoluteVorticity_IsbL-0850_RLatLon0.09_PT018H.grib2 2026-04-10 02:51 789K
20260410T00Z_MSC_RDPS_AirTemp_AGL-120m_RLatLon0.09_PT018H.grib2 2026-04-10 02:51 398K
20260410T00Z_MSC_RDPS_AirTemp_AGL-2m_RLatLon0.09_PT018H.grib2 2026-04-10 02:51 630K
20260410T00Z_MSC_RDPS_AirTemp_AGL-40m_RLatLon0.09_PT018H.grib2 2026-04-10 02:51 406K
20260410T00Z_MSC_RDPS_AirTemp_AGL-80m_RLatLon0.09_PT018H.grib2 2026-04-10 02:51 402K
20260410T00Z_MSC_RDPS_AirTemp_IsbL-0001_RLatLon0.09_PT018H.grib2 2026-04-10 02:51 247K
20260410T00Z_MSC_RDPS_AirTemp_IsbL-0005_RLatLon0.09_PT018H.grib2 2026-04-10 02:51 265K
20260410T00Z_MSC_RDPS_AirTemp_IsbL-0010_RLatLon0.09_PT018H.grib2 2026-04-10 02:51 273K
20260410T00Z_MSC_RDPS_AirTemp_IsbL-0020_RLatLon0.09_PT018H.grib2 2026-04-10 02:51 377K
20260410T00Z_MSC_RDPS_AirTemp_IsbL-0030_RLatLon0.09_PT018H.grib2 2026-04-10 02:51 403K
20260410T00Z_MSC_RDPS_AirTemp_IsbL-0050_RLatLon0.09_PT018H.grib2 2026-04-10 02:51 340K
20260410T00Z_MSC_RDPS_AirTemp_IsbL-0100_RLatLon0.09_PT018H.grib2 2026-04-10 02:51 396K
20260410T00Z_MSC_RDPS_AirTemp_IsbL-0150_RLatLon0.09_PT018H.grib2 2026-04-10 02:51 424K
20260410T00Z_MSC_RDPS_AirTemp_IsbL-0175_RLatLon0.09_PT018H.grib2 2026-04-10 02:51 421K
20260410T00Z_MSC_RDPS_AirTemp_IsbL-0200_RLatLon0.09_PT018H.grib2 2026-04-10 02:51 419K
20260410T00Z_MSC_RDPS_AirTemp_IsbL-0225_RLatLon0.09_PT018H.grib2 2026-04-10 02:51 414K
20260410T00Z_MSC_RDPS_AirTemp_IsbL-0250_RLatLon0.09_PT018H.grib2 2026-04-10 02:51 417K
20260410T00Z_MSC_RDPS_AirTemp_IsbL-0275_RLatLon0.09_PT018H.grib2 2026-04-10 02:51 402K
20260410T00Z_MSC_RDPS_AirTemp_IsbL-0300_RLatLon0.09_PT018H.grib2 2026-04-10 02:51 410K
20260410T00Z_MSC_RDPS_AirTemp_IsbL-0350_RLatLon0.09_PT018H.grib2 2026-04-10 02:51 426K
20260410T00Z_MSC_RDPS_AirTemp_IsbL-0400_RLatLon0.09_PT018H.grib2 2026-04-10 02:51 393K
20260410T00Z_MSC_RDPS_AirTemp_IsbL-0450_RLatLon0.09_PT018H.grib2 2026-04-10 02:51 399K
20260410T00Z_MSC_RDPS_AirTemp_IsbL-0500_RLatLon0.09_PT018H.grib2 2026-04-10 02:51 408K
20260410T00Z_MSC_RDPS_AirTemp_IsbL-0550_RLatLon0.09_PT018H.grib2 2026-04-10 02:51 426K
20260410T00Z_MSC_RDPS_AirTemp_IsbL-0600_RLatLon0.09_PT018H.grib2 2026-04-10 02:51 340K
20260410T00Z_MSC_RDPS_AirTemp_IsbL-0650_RLatLon0.09_PT018H.grib2 2026-04-10 02:51 353K
20260410T00Z_MSC_RDPS_AirTemp_IsbL-0700_RLatLon0.09_PT018H.grib2 2026-04-10 02:51 377K
20260410T00Z_MSC_RDPS_AirTemp_IsbL-0750_RLatLon0.09_PT018H.grib2 2026-04-10 02:51 414K
20260410T00Z_MSC_RDPS_AirTemp_IsbL-0800_RLatLon0.09_PT018H.grib2 2026-04-10 02:51 461K
20260410T00Z_MSC_RDPS_AirTemp_IsbL-0850_RLatLon0.09_PT018H.grib2 2026-04-10 02:51 506K
20260410T00Z_MSC_RDPS_AirTemp_IsbL-0875_RLatLon0.09_PT018H.grib2 2026-04-10 02:51 533K
20260410T00Z_MSC_RDPS_AirTemp_IsbL-0900_RLatLon0.09_PT018H.grib2 2026-04-10 02:51 541K
20260410T00Z_MSC_RDPS_AirTemp_IsbL-0925_RLatLon0.09_PT018H.grib2 2026-04-10 02:51 539K
20260410T00Z_MSC_RDPS_AirTemp_IsbL-0950_RLatLon0.09_PT018H.grib2 2026-04-10 02:51 543K
20260410T00Z_MSC_RDPS_AirTemp_IsbL-0970_RLatLon0.09_PT018H.grib2 2026-04-10 02:51 538K
20260410T00Z_MSC_RDPS_AirTemp_IsbL-0985_RLatLon0.09_PT018H.grib2 2026-04-10 02:51 529K
20260410T00Z_MSC_RDPS_AirTemp_IsbL-1000_RLatLon0.09_PT018H.grib2 2026-04-10 02:51 517K
20260410T00Z_MSC_RDPS_AirTemp_IsbL-1015_RLatLon0.09_PT018H.grib2 2026-04-10 02:51 509K
20260410T00Z_MSC_RDPS_Albedo_Sfc_RLatLon0.09_PT018H.grib2 2026-04-10 02:51 167K
20260410T00Z_MSC_RDPS_CAPE_Sfc_RLatLon0.09_PT018H.grib2 2026-04-10 02:51 1.7M
20260410T00Z_MSC_RDPS_CIN_Sfc_RLatLon0.09_PT018H.grib2 2026-04-10 02:51 1.1M
20260410T00Z_MSC_RDPS_CloudWater_EAtm_RLatLon0.09_PT018H.grib2 2026-04-10 02:51 208K
20260410T00Z_MSC_RDPS_ConvectivePrecip-Accum_Sfc_RLatLon0.09_PT018H.grib2 2026-04-10 02:51 792K
20260410T00Z_MSC_RDPS_DewPointDepression_AGL-2m_RLatLon0.09_PT018H.grib2 2026-04-10 02:51 411K
20260410T00Z_MSC_RDPS_DewPointDepression_IsbL-0001_RLatLon0.09_PT018H.grib2 2026-04-10 02:51 193
20260410T00Z_MSC_RDPS_DewPointDepression_IsbL-0005_RLatLon0.09_PT018H.grib2 2026-04-10 02:51 193
20260410T00Z_MSC_RDPS_DewPointDepression_IsbL-0010_RLatLon0.09_PT018H.grib2 2026-04-10 02:51 193
20260410T00Z_MSC_RDPS_DewPointDepression_IsbL-0020_RLatLon0.09_PT018H.grib2 2026-04-10 02:51 4.7K
20260410T00Z_MSC_RDPS_DewPointDepression_IsbL-0030_RLatLon0.09_PT018H.grib2 2026-04-10 02:51 18K
20260410T00Z_MSC_RDPS_DewPointDepression_IsbL-0050_RLatLon0.09_PT018H.grib2 2026-04-10 02:51 113K
20260410T00Z_MSC_RDPS_DewPointDepression_IsbL-0100_RLatLon0.09_PT018H.grib2 2026-04-10 02:51 133K
20260410T00Z_MSC_RDPS_DewPointDepression_IsbL-0150_RLatLon0.09_PT018H.grib2 2026-04-10 02:51 165K
20260410T00Z_MSC_RDPS_DewPointDepression_IsbL-0175_RLatLon0.09_PT018H.grib2 2026-04-10 02:51 194K
20260410T00Z_MSC_RDPS_DewPointDepression_IsbL-0200_RLatLon0.09_PT018H.grib2 2026-04-10 02:51 226K
20260410T00Z_MSC_RDPS_DewPointDepression_IsbL-0225_RLatLon0.09_PT018H.grib2 2026-04-10 02:51 249K
20260410T00Z_MSC_RDPS_DewPointDepression_IsbL-0250_RLatLon0.09_PT018H.grib2 2026-04-10 02:51 282K
20260410T00Z_MSC_RDPS_DewPointDepression_IsbL-0275_RLatLon0.09_PT018H.grib2 2026-04-10 02:51 297K
20260410T00Z_MSC_RDPS_DewPointDepression_IsbL-0300_RLatLon0.09_PT018H.grib2 2026-04-10 02:51 319K
20260410T00Z_MSC_RDPS_DewPointDepression_IsbL-0350_RLatLon0.09_PT018H.grib2 2026-04-10 02:51 328K
20260410T00Z_MSC_RDPS_DewPointDepression_IsbL-0400_RLatLon0.09_PT018H.grib2 2026-04-10 02:51 339K
20260410T00Z_MSC_RDPS_DewPointDepression_IsbL-0450_RLatLon0.09_PT018H.grib2 2026-04-10 02:51 349K
20260410T00Z_MSC_RDPS_DewPointDepression_IsbL-0500_RLatLon0.09_PT018H.grib2 2026-04-10 02:51 357K
20260410T00Z_MSC_RDPS_DewPointDepression_IsbL-0550_RLatLon0.09_PT018H.grib2 2026-04-10 02:51 366K
20260410T00Z_MSC_RDPS_DewPointDepression_IsbL-0600_RLatLon0.09_PT018H.grib2 2026-04-10 02:51 375K
20260410T00Z_MSC_RDPS_DewPointDepression_IsbL-0650_RLatLon0.09_PT018H.grib2 2026-04-10 02:51 372K
20260410T00Z_MSC_RDPS_DewPointDepression_IsbL-0700_RLatLon0.09_PT018H.grib2 2026-04-10 02:51 383K
20260410T00Z_MSC_RDPS_DewPointDepression_IsbL-0750_RLatLon0.09_PT018H.grib2 2026-04-10 02:51 406K
20260410T00Z_MSC_RDPS_DewPointDepression_IsbL-0800_RLatLon0.09_PT018H.grib2 2026-04-10 02:51 441K
20260410T00Z_MSC_RDPS_DewPointDepression_IsbL-0850_RLatLon0.09_PT018H.grib2 2026-04-10 02:51 466K
20260410T00Z_MSC_RDPS_DewPointDepression_IsbL-0875_RLatLon0.09_PT018H.grib2 2026-04-10 02:51 467K
20260410T00Z_MSC_RDPS_DewPointDepression_IsbL-0900_RLatLon0.09_PT018H.grib2 2026-04-10 02:51 461K
20260410T00Z_MSC_RDPS_DewPointDepression_IsbL-0925_RLatLon0.09_PT018H.grib2 2026-04-10 02:51 452K
20260410T00Z_MSC_RDPS_DewPointDepression_IsbL-0950_RLatLon0.09_PT018H.grib2 2026-04-10 02:51 447K
20260410T00Z_MSC_RDPS_DewPointDepression_IsbL-0970_RLatLon0.09_PT018H.grib2 2026-04-10 02:51 439K
20260410T00Z_MSC_RDPS_DewPointDepression_IsbL-0985_RLatLon0.09_PT018H.grib2 2026-04-10 02:51 435K
20260410T00Z_MSC_RDPS_DewPointDepression_IsbL-1000_RLatLon0.09_PT018H.grib2 2026-04-10 02:51 430K
20260410T00Z_MSC_RDPS_DewPointDepression_IsbL-1015_RLatLon0.09_PT018H.grib2 2026-04-10 02:51 420K
20260410T00Z_MSC_RDPS_DewPoint_AGL-2m_RLatLon0.09_PT018H.grib2 2026-04-10 02:51 310K
20260410T00Z_MSC_RDPS_DownwardLongwaveRadiationFlux-Accum_Sfc_RLatLon0.09_PT018H.grib2 2026-04-10 02:51 388K
20260410T00Z_MSC_RDPS_DownwardShortwaveRadiationFlux-Accum_NTAtm_RLatLon0.09_PT018H.grib2 2026-04-10 02:51 105K
20260410T00Z_MSC_RDPS_DownwardShortwaveRadiationFlux-Accum_Sfc_RLatLon0.09_PT018H.grib2 2026-04-10 02:51 516K
20260410T00Z_MSC_RDPS_FreezingRain-Accum12h_Sfc_RLatLon0.09_PT018H.grib2 2026-04-10 02:51 59K
20260410T00Z_MSC_RDPS_FreezingRain-Accum1h_Sfc_RLatLon0.09_PT018H.grib2 2026-04-10 02:51 9.0K
20260410T00Z_MSC_RDPS_FreezingRain-Accum3h_Sfc_RLatLon0.09_PT018H.grib2 2026-04-10 02:51 17K
20260410T00Z_MSC_RDPS_FreezingRain-Accum6h_Sfc_RLatLon0.09_PT018H.grib2 2026-04-10 02:51 34K
20260410T00Z_MSC_RDPS_FreezingRain-Accum_Sfc_RLatLon0.09_PT018H.grib2 2026-04-10 02:51 82K
20260410T00Z_MSC_RDPS_GeopotentialHeight_IsbL-0001_RLatLon0.09_PT018H.grib2 2026-04-10 02:51 247K
20260410T00Z_MSC_RDPS_GeopotentialHeight_IsbL-0005_RLatLon0.09_PT018H.grib2 2026-04-10 02:51 274K
20260410T00Z_MSC_RDPS_GeopotentialHeight_IsbL-0010_RLatLon0.09_PT018H.grib2 2026-04-10 02:51 242K
20260410T00Z_MSC_RDPS_GeopotentialHeight_IsbL-0020_RLatLon0.09_PT018H.grib2 2026-04-10 02:51 242K
20260410T00Z_MSC_RDPS_GeopotentialHeight_IsbL-0030_RLatLon0.09_PT018H.grib2 2026-04-10 02:51 244K
20260410T00Z_MSC_RDPS_GeopotentialHeight_IsbL-0050_RLatLon0.09_PT018H.grib2 2026-04-10 02:51 274K
20260410T00Z_MSC_RDPS_GeopotentialHeight_IsbL-0100_RLatLon0.09_PT018H.grib2 2026-04-10 02:51 221K
20260410T00Z_MSC_RDPS_GeopotentialHeight_IsbL-0150_RLatLon0.09_PT018H.grib2 2026-04-10 02:51 262K
20260410T00Z_MSC_RDPS_GeopotentialHeight_IsbL-0175_RLatLon0.09_PT018H.grib2 2026-04-10 02:51 266K
20260410T00Z_MSC_RDPS_GeopotentialHeight_IsbL-0200_RLatLon0.09_PT018H.grib2 2026-04-10 02:51 268K
20260410T00Z_MSC_RDPS_GeopotentialHeight_IsbL-0225_RLatLon0.09_PT018H.grib2 2026-04-10 02:51 270K
20260410T00Z_MSC_RDPS_GeopotentialHeight_IsbL-0250_RLatLon0.09_PT018H.grib2 2026-04-10 02:51 269K
20260410T00Z_MSC_RDPS_GeopotentialHeight_IsbL-0275_RLatLon0.09_PT018H.grib2 2026-04-10 02:51 267K
20260410T00Z_MSC_RDPS_GeopotentialHeight_IsbL-0300_RLatLon0.09_PT018H.grib2 2026-04-10 02:51 266K
20260410T00Z_MSC_RDPS_GeopotentialHeight_IsbL-0350_RLatLon0.09_PT018H.grib2 2026-04-10 02:51 259K
20260410T00Z_MSC_RDPS_GeopotentialHeight_IsbL-0400_RLatLon0.09_PT018H.grib2 2026-04-10 02:51 254K
20260410T00Z_MSC_RDPS_GeopotentialHeight_IsbL-0450_RLatLon0.09_PT018H.grib2 2026-04-10 02:51 219K
20260410T00Z_MSC_RDPS_GeopotentialHeight_IsbL-0500_RLatLon0.09_PT018H.grib2 2026-04-10 02:51 217K
20260410T00Z_MSC_RDPS_GeopotentialHeight_IsbL-0550_RLatLon0.09_PT018H.grib2 2026-04-10 02:51 286K
20260410T00Z_MSC_RDPS_GeopotentialHeight_IsbL-0600_RLatLon0.09_PT018H.grib2 2026-04-10 02:51 285K
20260410T00Z_MSC_RDPS_GeopotentialHeight_IsbL-0650_RLatLon0.09_PT018H.grib2 2026-04-10 02:51 283K
20260410T00Z_MSC_RDPS_GeopotentialHeight_IsbL-0700_RLatLon0.09_PT018H.grib2 2026-04-10 02:51 284K
20260410T00Z_MSC_RDPS_GeopotentialHeight_IsbL-0750_RLatLon0.09_PT018H.grib2 2026-04-10 02:51 285K
20260410T00Z_MSC_RDPS_GeopotentialHeight_IsbL-0800_RLatLon0.09_PT018H.grib2 2026-04-10 02:51 296K
20260410T00Z_MSC_RDPS_GeopotentialHeight_IsbL-0850_RLatLon0.09_PT018H.grib2 2026-04-10 02:51 304K
20260410T00Z_MSC_RDPS_GeopotentialHeight_IsbL-0875_RLatLon0.09_PT018H.grib2 2026-04-10 02:51 281K
20260410T00Z_MSC_RDPS_GeopotentialHeight_IsbL-0900_RLatLon0.09_PT018H.grib2 2026-04-10 02:51 283K
20260410T00Z_MSC_RDPS_GeopotentialHeight_IsbL-0925_RLatLon0.09_PT018H.grib2 2026-04-10 02:51 285K
20260410T00Z_MSC_RDPS_GeopotentialHeight_IsbL-0950_RLatLon0.09_PT018H.grib2 2026-04-10 02:51 288K
20260410T00Z_MSC_RDPS_GeopotentialHeight_IsbL-0970_RLatLon0.09_PT018H.grib2 2026-04-10 02:51 294K
20260410T00Z_MSC_RDPS_GeopotentialHeight_IsbL-0985_RLatLon0.09_PT018H.grib2 2026-04-10 02:51 301K
20260410T00Z_MSC_RDPS_GeopotentialHeight_IsbL-1000_RLatLon0.09_PT018H.grib2 2026-04-10 02:51 311K
20260410T00Z_MSC_RDPS_GeopotentialHeight_IsbL-1015_RLatLon0.09_PT018H.grib2 2026-04-10 02:51 323K
20260410T00Z_MSC_RDPS_Humidex_Sfc_RLatLon0.09_PT018H.grib2 2026-04-10 02:51 2.4M
20260410T00Z_MSC_RDPS_IcePellets-Accum12h_Sfc_RLatLon0.09_PT018H.grib2 2026-04-10 02:51 6.6K
20260410T00Z_MSC_RDPS_IcePellets-Accum1h_Sfc_RLatLon0.09_PT018H.grib2 2026-04-10 02:51 1.9K
20260410T00Z_MSC_RDPS_IcePellets-Accum3h_Sfc_RLatLon0.09_PT018H.grib2 2026-04-10 02:51 4.2K
20260410T00Z_MSC_RDPS_IcePellets-Accum6h_Sfc_RLatLon0.09_PT018H.grib2 2026-04-10 02:51 6.2K
20260410T00Z_MSC_RDPS_IcePellets-Accum_Sfc_RLatLon0.09_PT018H.grib2 2026-04-10 02:51 7.9K
20260410T00Z_MSC_RDPS_KIndex_Sfc_RLatLon0.09_PT018H.grib2 2026-04-10 02:51 2.3M
20260410T00Z_MSC_RDPS_LatentHeatNetFlux_Sfc_RLatLon0.09_PT018H.grib2 2026-04-10 02:51 288K
20260410T00Z_MSC_RDPS_LiftedIndex-MU-VT_IsbL-0500_RLatLon0.09_PT018H.grib2 2026-04-10 02:51 2.4M
20260410T00Z_MSC_RDPS_NetLongwaveRadiationFlux-Accum_Sfc_RLatLon0.09_PT018H.grib2 2026-04-10 02:51 516K
20260410T00Z_MSC_RDPS_NetShortwaveRadiationFlux-Accum_Sfc_RLatLon0.09_PT018H.grib2 2026-04-10 02:51 519K
20260410T00Z_MSC_RDPS_PlanetaryBoundaryLayerHeight_Sfc_RLatLon0.09_PT018H.grib2 2026-04-10 02:51 1.0M
20260410T00Z_MSC_RDPS_Precip-Accum12h_Sfc_RLatLon0.09_PT018H.grib2 2026-04-10 02:51 1.6M
20260410T00Z_MSC_RDPS_Precip-Accum1h_Sfc_RLatLon0.09_PT018H.grib2 2026-04-10 02:51 1.3M
20260410T00Z_MSC_RDPS_Precip-Accum3h_Sfc_RLatLon0.09_PT018H.grib2 2026-04-10 02:51 1.4M
20260410T00Z_MSC_RDPS_Precip-Accum6h_Sfc_RLatLon0.09_PT018H.grib2 2026-04-10 02:51 1.5M
20260410T00Z_MSC_RDPS_Precip-Accum_Sfc_RLatLon0.09_PT018H.grib2 2026-04-10 02:51 1.7M
20260410T00Z_MSC_RDPS_PrecipRate_Sfc_RLatLon0.09_PT018H.grib2 2026-04-10 02:51 232K
20260410T00Z_MSC_RDPS_PrecipType-Instant_Sfc_RLatLon0.09_PT018H.grib2 2026-04-10 02:51 559K
20260410T00Z_MSC_RDPS_Pressure-Trend3h_Sfc_RLatLon0.09_PT018H.grib2 2026-04-10 02:51 1.1M
20260410T00Z_MSC_RDPS_Pressure_MSL_RLatLon0.09_PT018H.grib2 2026-04-10 02:51 334K
20260410T00Z_MSC_RDPS_Pressure_PVU-1.5_RLatLon0.09_PT018H.grib2 2026-04-10 02:51 2.3M
20260410T00Z_MSC_RDPS_Pressure_PVU-1_RLatLon0.09_PT018H.grib2 2026-04-10 02:51 2.4M
20260410T00Z_MSC_RDPS_Pressure_PVU-2_RLatLon0.09_PT018H.grib2 2026-04-10 02:51 2.4M
20260410T00Z_MSC_RDPS_Pressure_Sfc_RLatLon0.09_PT018H.grib2 2026-04-10 02:51 503K
20260410T00Z_MSC_RDPS_RadiativeTemp_Sfc_RLatLon0.09_PT018H.grib2 2026-04-10 02:51 319K
20260410T00Z_MSC_RDPS_Rain-Accum12h_Sfc_RLatLon0.09_PT018H.grib2 2026-04-10 02:51 1.0M
20260410T00Z_MSC_RDPS_Rain-Accum1h_Sfc_RLatLon0.09_PT018H.grib2 2026-04-10 02:51 699K
20260410T00Z_MSC_RDPS_Rain-Accum3h_Sfc_RLatLon0.09_PT018H.grib2 2026-04-10 02:51 795K
20260410T00Z_MSC_RDPS_Rain-Accum6h_Sfc_RLatLon0.09_PT018H.grib2 2026-04-10 02:51 1.0M
20260410T00Z_MSC_RDPS_Rain-Accum_Sfc_RLatLon0.09_PT018H.grib2 2026-04-10 02:51 1.2M
20260410T00Z_MSC_RDPS_RelativeHumidity_AGL-2m_RLatLon0.09_PT018H.grib2 2026-04-10 02:51 1.0M
20260410T00Z_MSC_RDPS_RelativeHumidity_IsbL-0010_RLatLon0.09_PT018H.grib2 2026-04-10 02:51 439K
20260410T00Z_MSC_RDPS_RelativeHumidity_IsbL-0020_RLatLon0.09_PT018H.grib2 2026-04-10 02:51 415K
20260410T00Z_MSC_RDPS_RelativeHumidity_IsbL-0030_RLatLon0.09_PT018H.grib2 2026-04-10 02:51 379K
20260410T00Z_MSC_RDPS_RelativeHumidity_IsbL-0050_RLatLon0.09_PT018H.grib2 2026-04-10 02:51 465K
20260410T00Z_MSC_RDPS_RelativeHumidity_IsbL-0100_RLatLon0.09_PT018H.grib2 2026-04-10 02:51 264K
20260410T00Z_MSC_RDPS_RelativeHumidity_IsbL-0150_RLatLon0.09_PT018H.grib2 2026-04-10 02:51 376K
20260410T00Z_MSC_RDPS_RelativeHumidity_IsbL-0175_RLatLon0.09_PT018H.grib2 2026-04-10 02:51 469K
20260410T00Z_MSC_RDPS_RelativeHumidity_IsbL-0200_RLatLon0.09_PT018H.grib2 2026-04-10 02:51 553K
20260410T00Z_MSC_RDPS_RelativeHumidity_IsbL-0225_RLatLon0.09_PT018H.grib2 2026-04-10 02:51 608K
20260410T00Z_MSC_RDPS_RelativeHumidity_IsbL-0250_RLatLon0.09_PT018H.grib2 2026-04-10 02:51 660K
20260410T00Z_MSC_RDPS_RelativeHumidity_IsbL-0275_RLatLon0.09_PT018H.grib2 2026-04-10 02:51 683K
20260410T00Z_MSC_RDPS_RelativeHumidity_IsbL-0300_RLatLon0.09_PT018H.grib2 2026-04-10 02:51 731K
20260410T00Z_MSC_RDPS_RelativeHumidity_IsbL-0350_RLatLon0.09_PT018H.grib2 2026-04-10 02:51 759K
20260410T00Z_MSC_RDPS_RelativeHumidity_IsbL-0400_RLatLon0.09_PT018H.grib2 2026-04-10 02:51 776K
20260410T00Z_MSC_RDPS_RelativeHumidity_IsbL-0450_RLatLon0.09_PT018H.grib2 2026-04-10 02:51 787K
20260410T00Z_MSC_RDPS_RelativeHumidity_IsbL-0500_RLatLon0.09_PT018H.grib2 2026-04-10 02:51 797K
20260410T00Z_MSC_RDPS_RelativeHumidity_IsbL-0550_RLatLon0.09_PT018H.grib2 2026-04-10 02:51 813K
20260410T00Z_MSC_RDPS_RelativeHumidity_IsbL-0600_RLatLon0.09_PT018H.grib2 2026-04-10 02:51 840K
20260410T00Z_MSC_RDPS_RelativeHumidity_IsbL-0650_RLatLon0.09_PT018H.grib2 2026-04-10 02:51 844K
20260410T00Z_MSC_RDPS_RelativeHumidity_IsbL-0700_RLatLon0.09_PT018H.grib2 2026-04-10 02:51 853K
20260410T00Z_MSC_RDPS_RelativeHumidity_IsbL-0750_RLatLon0.09_PT018H.grib2 2026-04-10 02:51 912K
20260410T00Z_MSC_RDPS_RelativeHumidity_IsbL-0800_RLatLon0.09_PT018H.grib2 2026-04-10 02:51 1.0M
20260410T00Z_MSC_RDPS_RelativeHumidity_IsbL-0850_RLatLon0.09_PT018H.grib2 2026-04-10 02:51 1.0M
20260410T00Z_MSC_RDPS_RelativeHumidity_IsbL-0875_RLatLon0.09_PT018H.grib2 2026-04-10 02:51 1.0M
20260410T00Z_MSC_RDPS_RelativeHumidity_IsbL-0900_RLatLon0.09_PT018H.grib2 2026-04-10 02:51 1.1M
20260410T00Z_MSC_RDPS_RelativeHumidity_IsbL-0925_RLatLon0.09_PT018H.grib2 2026-04-10 02:51 1.1M
20260410T00Z_MSC_RDPS_RelativeHumidity_IsbL-0950_RLatLon0.09_PT018H.grib2 2026-04-10 02:51 1.1M
20260410T00Z_MSC_RDPS_RelativeHumidity_IsbL-0970_RLatLon0.09_PT018H.grib2 2026-04-10 02:51 1.0M
20260410T00Z_MSC_RDPS_RelativeHumidity_IsbL-0985_RLatLon0.09_PT018H.grib2 2026-04-10 02:51 1.0M
20260410T00Z_MSC_RDPS_RelativeHumidity_IsbL-1000_RLatLon0.09_PT018H.grib2 2026-04-10 02:51 1.0M
20260410T00Z_MSC_RDPS_RelativeHumidity_IsbL-1015_RLatLon0.09_PT018H.grib2 2026-04-10 02:51 1.0M
20260410T00Z_MSC_RDPS_Runoff-Accum_Sfc_RLatLon0.09_PT018H.grib2 2026-04-10 02:51 37K
20260410T00Z_MSC_RDPS_SWEATIndex_Sfc_RLatLon0.09_PT018H.grib2 2026-04-10 02:51 2.4M
20260410T00Z_MSC_RDPS_SeeingIndex_EAtm_RLatLon0.09_PT018H.grib2 2026-04-10 02:51 1.0M
20260410T00Z_MSC_RDPS_SensibleHeatNetFlux_Sfc_RLatLon0.09_PT018H.grib2 2026-04-10 02:51 363K
20260410T00Z_MSC_RDPS_ShowalterIndex_IsbL-0500_RLatLon0.09_PT018H.grib2 2026-04-10 02:51 2.6M
20260410T00Z_MSC_RDPS_SkyTransparencyIndex_EAtm_RLatLon0.09_PT018H.grib2 2026-04-10 02:51 706K
20260410T00Z_MSC_RDPS_Snow-Accum12h_Sfc_RLatLon0.09_PT018H.grib2 2026-04-10 02:51 677K
20260410T00Z_MSC_RDPS_Snow-Accum1h_Sfc_RLatLon0.09_PT018H.grib2 2026-04-10 02:51 462K
20260410T00Z_MSC_RDPS_Snow-Accum3h_Sfc_RLatLon0.09_PT018H.grib2 2026-04-10 02:51 502K
20260410T00Z_MSC_RDPS_Snow-Accum6h_Sfc_RLatLon0.09_PT018H.grib2 2026-04-10 02:51 590K
20260410T00Z_MSC_RDPS_Snow-Accum_Sfc_RLatLon0.09_PT018H.grib2 2026-04-10 02:51 747K
20260410T00Z_MSC_RDPS_SnowDensity_Sfc_RLatLon0.09_PT018H.grib2 2026-04-10 02:51 174K
20260410T00Z_MSC_RDPS_SnowDepth_Sfc_RLatLon0.09_PT018H.grib2 2026-04-10 02:51 724K
20260410T00Z_MSC_RDPS_SoilTemp_DBS-0to10cm_RLatLon0.09_PT018H.grib2 2026-04-10 02:51 216K
20260410T00Z_MSC_RDPS_SoilTemp_Sfc_RLatLon0.09_PT018H.grib2 2026-04-10 02:51 288K
20260410T00Z_MSC_RDPS_SoilVolumetricIceContent_Sfc_RLatLon0.09_PT018H.grib2 2026-04-10 02:51 181K
20260410T00Z_MSC_RDPS_SoilVolumetricWaterContent_DBS-0to10cm_RLatLon0.09_PT018H.grib2 2026-04-10 02:51 235K
20260410T00Z_MSC_RDPS_SoilVolumetricWaterContent_DBS-0to1cm_RLatLon0.09_PT018H.grib2 2026-04-10 02:51 333K
20260410T00Z_MSC_RDPS_SpecificHumidity_AGL-120m_RLatLon0.09_PT018H.grib2 2026-04-10 02:51 478K
20260410T00Z_MSC_RDPS_SpecificHumidity_AGL-2m_RLatLon0.09_PT018H.grib2 2026-04-10 02:51 635K
20260410T00Z_MSC_RDPS_SpecificHumidity_AGL-40m_RLatLon0.09_PT018H.grib2 2026-04-10 02:51 480K
20260410T00Z_MSC_RDPS_SpecificHumidity_AGL-80m_RLatLon0.09_PT018H.grib2 2026-04-10 02:51 479K
20260410T00Z_MSC_RDPS_SpecificHumidity_IsbL-0001_RLatLon0.09_PT018H.grib2 2026-04-10 02:51 320K
20260410T00Z_MSC_RDPS_SpecificHumidity_IsbL-0005_RLatLon0.09_PT018H.grib2 2026-04-10 02:51 347K
20260410T00Z_MSC_RDPS_SpecificHumidity_IsbL-0010_RLatLon0.09_PT018H.grib2 2026-04-10 02:51 360K
20260410T00Z_MSC_RDPS_SpecificHumidity_IsbL-0020_RLatLon0.09_PT018H.grib2 2026-04-10 02:51 370K
20260410T00Z_MSC_RDPS_SpecificHumidity_IsbL-0030_RLatLon0.09_PT018H.grib2 2026-04-10 02:51 375K
20260410T00Z_MSC_RDPS_SpecificHumidity_IsbL-0050_RLatLon0.09_PT018H.grib2 2026-04-10 02:51 470K
20260410T00Z_MSC_RDPS_SpecificHumidity_IsbL-0100_RLatLon0.09_PT018H.grib2 2026-04-10 02:51 484K
20260410T00Z_MSC_RDPS_SpecificHumidity_IsbL-0150_RLatLon0.09_PT018H.grib2 2026-04-10 02:51 429K
20260410T00Z_MSC_RDPS_SpecificHumidity_IsbL-0175_RLatLon0.09_PT018H.grib2 2026-04-10 02:51 419K
20260410T00Z_MSC_RDPS_SpecificHumidity_IsbL-0200_RLatLon0.09_PT018H.grib2 2026-04-10 02:51 435K
20260410T00Z_MSC_RDPS_SpecificHumidity_IsbL-0225_RLatLon0.09_PT018H.grib2 2026-04-10 02:51 430K
20260410T00Z_MSC_RDPS_SpecificHumidity_IsbL-0250_RLatLon0.09_PT018H.grib2 2026-04-10 02:51 525K
20260410T00Z_MSC_RDPS_SpecificHumidity_IsbL-0275_RLatLon0.09_PT018H.grib2 2026-04-10 02:51 445K
20260410T00Z_MSC_RDPS_SpecificHumidity_IsbL-0300_RLatLon0.09_PT018H.grib2 2026-04-10 02:51 517K
20260410T00Z_MSC_RDPS_SpecificHumidity_IsbL-0350_RLatLon0.09_PT018H.grib2 2026-04-10 02:51 514K
20260410T00Z_MSC_RDPS_SpecificHumidity_IsbL-0400_RLatLon0.09_PT018H.grib2 2026-04-10 02:51 498K
20260410T00Z_MSC_RDPS_SpecificHumidity_IsbL-0450_RLatLon0.09_PT018H.grib2 2026-04-10 02:51 554K
20260410T00Z_MSC_RDPS_SpecificHumidity_IsbL-0500_RLatLon0.09_PT018H.grib2 2026-04-10 02:51 493K
20260410T00Z_MSC_RDPS_SpecificHumidity_IsbL-0550_RLatLon0.09_PT018H.grib2 2026-04-10 02:51 548K
20260410T00Z_MSC_RDPS_SpecificHumidity_IsbL-0600_RLatLon0.09_PT018H.grib2 2026-04-10 02:51 613K
20260410T00Z_MSC_RDPS_SpecificHumidity_IsbL-0650_RLatLon0.09_PT018H.grib2 2026-04-10 02:51 523K
20260410T00Z_MSC_RDPS_SpecificHumidity_IsbL-0700_RLatLon0.09_PT018H.grib2 2026-04-10 02:51 563K
20260410T00Z_MSC_RDPS_SpecificHumidity_IsbL-0750_RLatLon0.09_PT018H.grib2 2026-04-10 02:51 622K
20260410T00Z_MSC_RDPS_SpecificHumidity_IsbL-0800_RLatLon0.09_PT018H.grib2 2026-04-10 02:51 705K
20260410T00Z_MSC_RDPS_SpecificHumidity_IsbL-0850_RLatLon0.09_PT018H.grib2 2026-04-10 02:51 772K
20260410T00Z_MSC_RDPS_SpecificHumidity_IsbL-0875_RLatLon0.09_PT018H.grib2 2026-04-10 02:51 798K
20260410T00Z_MSC_RDPS_SpecificHumidity_IsbL-0900_RLatLon0.09_PT018H.grib2 2026-04-10 02:51 676K
20260410T00Z_MSC_RDPS_SpecificHumidity_IsbL-0925_RLatLon0.09_PT018H.grib2 2026-04-10 02:51 678K
20260410T00Z_MSC_RDPS_SpecificHumidity_IsbL-0950_RLatLon0.09_PT018H.grib2 2026-04-10 02:51 682K
20260410T00Z_MSC_RDPS_SpecificHumidity_IsbL-0970_RLatLon0.09_PT018H.grib2 2026-04-10 02:51 676K
20260410T00Z_MSC_RDPS_SpecificHumidity_IsbL-0985_RLatLon0.09_PT018H.grib2 2026-04-10 02:51 669K
20260410T00Z_MSC_RDPS_SpecificHumidity_IsbL-1000_RLatLon0.09_PT018H.grib2 2026-04-10 02:51 662K
20260410T00Z_MSC_RDPS_SpecificHumidity_IsbL-1015_RLatLon0.09_PT018H.grib2 2026-04-10 02:51 651K
20260410T00Z_MSC_RDPS_SpecificHumidity_Sfc_RLatLon0.09_PT018H.grib2 2026-04-10 02:51 315K
20260410T00Z_MSC_RDPS_StormRelativeHelicity_EtaL-10000_RLatLon0.09_PT018H.grib2 2026-04-10 02:51 1.1M
20260410T00Z_MSC_RDPS_StormSeverityIndex_EtaL-10000_RLatLon0.09_PT018H.grib2 2026-04-10 02:51 1.1M
20260410T00Z_MSC_RDPS_Thickness_IsbL-0850to0700_RLatLon0.09_PT018H.grib2 2026-04-10 02:51 200K
20260410T00Z_MSC_RDPS_Thickness_IsbL-1000to0500_RLatLon0.09_PT018H.grib2 2026-04-10 02:51 143K
20260410T00Z_MSC_RDPS_Thickness_IsbL-1000to0850_RLatLon0.09_PT018H.grib2 2026-04-10 02:51 192K
20260410T00Z_MSC_RDPS_TotalCloudCover_Sfc_RLatLon0.09_PT018H.grib2 2026-04-10 02:51 647K
20260410T00Z_MSC_RDPS_TotalTotalsIndex_Sfc_RLatLon0.09_PT018H.grib2 2026-04-10 02:51 2.4M
20260410T00Z_MSC_RDPS_UVIndex-ClearSky-Max24h_Sfc_RLatLon0.09_PT018H.grib2 2026-04-10 02:51 275K
20260410T00Z_MSC_RDPS_UVIndex-ClearSky_Sfc_RLatLon0.09_PT018H.grib2 2026-04-10 02:51 206K
20260410T00Z_MSC_RDPS_UVIndex-Max24h_Sfc_RLatLon0.09_PT018H.grib2 2026-04-10 02:51 610K
20260410T00Z_MSC_RDPS_UVIndex_Sfc_RLatLon0.09_PT018H.grib2 2026-04-10 02:51 486K
20260410T00Z_MSC_RDPS_UpwardLongwaveRadiationFlux_NTAtm_RLatLon0.09_PT018H.grib2 2026-04-10 02:51 482K
20260410T00Z_MSC_RDPS_UpwardShortwaveRadiationFlux_NTAtm_RLatLon0.09_PT018H.grib2 2026-04-10 02:51 524K
20260410T00Z_MSC_RDPS_VerticalVelocity_IsbL-0250_RLatLon0.09_PT018H.grib2 2026-04-10 02:51 586K
20260410T00Z_MSC_RDPS_VerticalVelocity_IsbL-0500_RLatLon0.09_PT018H.grib2 2026-04-10 02:51 678K
20260410T00Z_MSC_RDPS_VerticalVelocity_IsbL-0700_RLatLon0.09_PT018H.grib2 2026-04-10 02:51 736K
20260410T00Z_MSC_RDPS_VerticalVelocity_IsbL-0850_RLatLon0.09_PT018H.grib2 2026-04-10 02:51 697K
20260410T00Z_MSC_RDPS_VerticalWindShear_EtaL-6500_RLatLon0.09_PT018H.grib2 2026-04-10 02:51 1.2M
20260410T00Z_MSC_RDPS_WindChill_Sfc_RLatLon0.09_PT018H.grib2 2026-04-10 02:51 1.1M
20260410T00Z_MSC_RDPS_WindDir_AGL-10m_RLatLon0.09_PT018H.grib2 2026-04-10 02:51 944K
20260410T00Z_MSC_RDPS_WindDir_AGL-120m_RLatLon0.09_PT018H.grib2 2026-04-10 02:51 596K
20260410T00Z_MSC_RDPS_WindDir_AGL-40m_RLatLon0.09_PT018H.grib2 2026-04-10 02:51 616K
20260410T00Z_MSC_RDPS_WindDir_AGL-80m_RLatLon0.09_PT018H.grib2 2026-04-10 02:51 604K
20260410T00Z_MSC_RDPS_WindDir_IsbL-0001_RLatLon0.09_PT018H.grib2 2026-04-10 02:51 269K
20260410T00Z_MSC_RDPS_WindDir_IsbL-0005_RLatLon0.09_PT018H.grib2 2026-04-10 02:51 321K
20260410T00Z_MSC_RDPS_WindDir_IsbL-0010_RLatLon0.09_PT018H.grib2 2026-04-10 02:51 346K
20260410T00Z_MSC_RDPS_WindDir_IsbL-0020_RLatLon0.09_PT018H.grib2 2026-04-10 02:51 375K
20260410T00Z_MSC_RDPS_WindDir_IsbL-0030_RLatLon0.09_PT018H.grib2 2026-04-10 02:51 370K
20260410T00Z_MSC_RDPS_WindDir_IsbL-0050_RLatLon0.09_PT018H.grib2 2026-04-10 02:51 393K
20260410T00Z_MSC_RDPS_WindDir_IsbL-0100_RLatLon0.09_PT018H.grib2 2026-04-10 02:51 384K
20260410T00Z_MSC_RDPS_WindDir_IsbL-0150_RLatLon0.09_PT018H.grib2 2026-04-10 02:51 371K
20260410T00Z_MSC_RDPS_WindDir_IsbL-0175_RLatLon0.09_PT018H.grib2 2026-04-10 02:51 391K
20260410T00Z_MSC_RDPS_WindDir_IsbL-0200_RLatLon0.09_PT018H.grib2 2026-04-10 02:51 408K
20260410T00Z_MSC_RDPS_WindDir_IsbL-0225_RLatLon0.09_PT018H.grib2 2026-04-10 02:51 410K
20260410T00Z_MSC_RDPS_WindDir_IsbL-0250_RLatLon0.09_PT018H.grib2 2026-04-10 02:51 418K
20260410T00Z_MSC_RDPS_WindDir_IsbL-0275_RLatLon0.09_PT018H.grib2 2026-04-10 02:51 447K
20260410T00Z_MSC_RDPS_WindDir_IsbL-0300_RLatLon0.09_PT018H.grib2 2026-04-10 02:51 447K
20260410T00Z_MSC_RDPS_WindDir_IsbL-0350_RLatLon0.09_PT018H.grib2 2026-04-10 02:51 475K
20260410T00Z_MSC_RDPS_WindDir_IsbL-0400_RLatLon0.09_PT018H.grib2 2026-04-10 02:51 504K
20260410T00Z_MSC_RDPS_WindDir_IsbL-0450_RLatLon0.09_PT018H.grib2 2026-04-10 02:51 534K
20260410T00Z_MSC_RDPS_WindDir_IsbL-0500_RLatLon0.09_PT018H.grib2 2026-04-10 02:51 546K
20260410T00Z_MSC_RDPS_WindDir_IsbL-0550_RLatLon0.09_PT018H.grib2 2026-04-10 02:51 555K
20260410T00Z_MSC_RDPS_WindDir_IsbL-0600_RLatLon0.09_PT018H.grib2 2026-04-10 02:51 577K
20260410T00Z_MSC_RDPS_WindDir_IsbL-0650_RLatLon0.09_PT018H.grib2 2026-04-10 02:51 605K
20260410T00Z_MSC_RDPS_WindDir_IsbL-0700_RLatLon0.09_PT018H.grib2 2026-04-10 02:51 642K
20260410T00Z_MSC_RDPS_WindDir_IsbL-0750_RLatLon0.09_PT018H.grib2 2026-04-10 02:51 691K
20260410T00Z_MSC_RDPS_WindDir_IsbL-0800_RLatLon0.09_PT018H.grib2 2026-04-10 02:51 753K
20260410T00Z_MSC_RDPS_WindDir_IsbL-0850_RLatLon0.09_PT018H.grib2 2026-04-10 02:51 826K
20260410T00Z_MSC_RDPS_WindDir_IsbL-0875_RLatLon0.09_PT018H.grib2 2026-04-10 02:51 859K
20260410T00Z_MSC_RDPS_WindDir_IsbL-0900_RLatLon0.09_PT018H.grib2 2026-04-10 02:51 878K
20260410T00Z_MSC_RDPS_WindDir_IsbL-0925_RLatLon0.09_PT018H.grib2 2026-04-10 02:51 893K
20260410T00Z_MSC_RDPS_WindDir_IsbL-0950_RLatLon0.09_PT018H.grib2 2026-04-10 02:51 898K
20260410T00Z_MSC_RDPS_WindDir_IsbL-0970_RLatLon0.09_PT018H.grib2 2026-04-10 02:51 902K
20260410T00Z_MSC_RDPS_WindDir_IsbL-0985_RLatLon0.09_PT018H.grib2 2026-04-10 02:51 908K
20260410T00Z_MSC_RDPS_WindDir_IsbL-1000_RLatLon0.09_PT018H.grib2 2026-04-10 02:51 921K
20260410T00Z_MSC_RDPS_WindDir_IsbL-1015_RLatLon0.09_PT018H.grib2 2026-04-10 02:51 936K
20260410T00Z_MSC_RDPS_WindGust-Max_AGL-10m_RLatLon0.09_PT018H.grib2 2026-04-10 02:51 805K
20260410T00Z_MSC_RDPS_WindGust-Min_AGL-10m_RLatLon0.09_PT018H.grib2 2026-04-10 02:51 925K
20260410T00Z_MSC_RDPS_WindGust_AGL-10m_RLatLon0.09_PT018H.grib2 2026-04-10 02:51 937K
20260410T00Z_MSC_RDPS_WindSpeed_AGL-10m_RLatLon0.09_PT018H.grib2 2026-04-10 02:51 836K
20260410T00Z_MSC_RDPS_WindSpeed_AGL-120m_RLatLon0.09_PT018H.grib2 2026-04-10 02:51 542K
20260410T00Z_MSC_RDPS_WindSpeed_AGL-40m_RLatLon0.09_PT018H.grib2 2026-04-10 02:51 544K
20260410T00Z_MSC_RDPS_WindSpeed_AGL-80m_RLatLon0.09_PT018H.grib2 2026-04-10 02:51 542K
20260410T00Z_MSC_RDPS_WindSpeed_IsbL-0001_RLatLon0.09_PT018H.grib2 2026-04-10 02:51 271K
20260410T00Z_MSC_RDPS_WindSpeed_IsbL-0005_RLatLon0.09_PT018H.grib2 2026-04-10 02:51 318K
20260410T00Z_MSC_RDPS_WindSpeed_IsbL-0010_RLatLon0.09_PT018H.grib2 2026-04-10 02:51 361K
20260410T00Z_MSC_RDPS_WindSpeed_IsbL-0020_RLatLon0.09_PT018H.grib2 2026-04-10 02:51 352K
20260410T00Z_MSC_RDPS_WindSpeed_IsbL-0030_RLatLon0.09_PT018H.grib2 2026-04-10 02:51 352K
20260410T00Z_MSC_RDPS_WindSpeed_IsbL-0050_RLatLon0.09_PT018H.grib2 2026-04-10 02:51 383K
20260410T00Z_MSC_RDPS_WindSpeed_IsbL-0100_RLatLon0.09_PT018H.grib2 2026-04-10 02:51 487K
20260410T00Z_MSC_RDPS_WindSpeed_IsbL-0150_RLatLon0.09_PT018H.grib2 2026-04-10 02:51 372K
20260410T00Z_MSC_RDPS_WindSpeed_IsbL-0175_RLatLon0.09_PT018H.grib2 2026-04-10 02:51 401K
20260410T00Z_MSC_RDPS_WindSpeed_IsbL-0200_RLatLon0.09_PT018H.grib2 2026-04-10 02:51 421K
20260410T00Z_MSC_RDPS_WindSpeed_IsbL-0225_RLatLon0.09_PT018H.grib2 2026-04-10 02:51 447K
20260410T00Z_MSC_RDPS_WindSpeed_IsbL-0250_RLatLon0.09_PT018H.grib2 2026-04-10 02:51 449K
20260410T00Z_MSC_RDPS_WindSpeed_IsbL-0275_RLatLon0.09_PT018H.grib2 2026-04-10 02:51 463K
20260410T00Z_MSC_RDPS_WindSpeed_IsbL-0300_RLatLon0.09_PT018H.grib2 2026-04-10 02:51 462K
20260410T00Z_MSC_RDPS_WindSpeed_IsbL-0350_RLatLon0.09_PT018H.grib2 2026-04-10 02:51 472K
20260410T00Z_MSC_RDPS_WindSpeed_IsbL-0400_RLatLon0.09_PT018H.grib2 2026-04-10 02:51 476K
20260410T00Z_MSC_RDPS_WindSpeed_IsbL-0450_RLatLon0.09_PT018H.grib2 2026-04-10 02:51 477K
20260410T00Z_MSC_RDPS_WindSpeed_IsbL-0500_RLatLon0.09_PT018H.grib2 2026-04-10 02:51 462K
20260410T00Z_MSC_RDPS_WindSpeed_IsbL-0550_RLatLon0.09_PT018H.grib2 2026-04-10 02:51 463K
20260410T00Z_MSC_RDPS_WindSpeed_IsbL-0600_RLatLon0.09_PT018H.grib2 2026-04-10 02:51 471K
20260410T00Z_MSC_RDPS_WindSpeed_IsbL-0650_RLatLon0.09_PT018H.grib2 2026-04-10 02:51 609K
20260410T00Z_MSC_RDPS_WindSpeed_IsbL-0700_RLatLon0.09_PT018H.grib2 2026-04-10 02:51 632K
20260410T00Z_MSC_RDPS_WindSpeed_IsbL-0750_RLatLon0.09_PT018H.grib2 2026-04-10 02:51 538K
20260410T00Z_MSC_RDPS_WindSpeed_IsbL-0800_RLatLon0.09_PT018H.grib2 2026-04-10 02:51 582K
20260410T00Z_MSC_RDPS_WindSpeed_IsbL-0850_RLatLon0.09_PT018H.grib2 2026-04-10 02:51 770K
20260410T00Z_MSC_RDPS_WindSpeed_IsbL-0875_RLatLon0.09_PT018H.grib2 2026-04-10 02:51 791K
20260410T00Z_MSC_RDPS_WindSpeed_IsbL-0900_RLatLon0.09_PT018H.grib2 2026-04-10 02:51 803K
20260410T00Z_MSC_RDPS_WindSpeed_IsbL-0925_RLatLon0.09_PT018H.grib2 2026-04-10 02:51 811K
20260410T00Z_MSC_RDPS_WindSpeed_IsbL-0950_RLatLon0.09_PT018H.grib2 2026-04-10 02:51 811K
20260410T00Z_MSC_RDPS_WindSpeed_IsbL-0970_RLatLon0.09_PT018H.grib2 2026-04-10 02:51 859K
20260410T00Z_MSC_RDPS_WindSpeed_IsbL-0985_RLatLon0.09_PT018H.grib2 2026-04-10 02:51 854K
20260410T00Z_MSC_RDPS_WindSpeed_IsbL-1000_RLatLon0.09_PT018H.grib2 2026-04-10 02:51 850K
20260410T00Z_MSC_RDPS_WindSpeed_IsbL-1015_RLatLon0.09_PT018H.grib2 2026-04-10 02:51 840K
20260410T00Z_MSC_RDPS_WindU_AGL-10m_RLatLon0.09_PT018H.grib2 2026-04-10 02:51 382K
20260410T00Z_MSC_RDPS_WindU_AGL-120m_RLatLon0.09_PT018H.grib2 2026-04-10 02:51 433K
20260410T00Z_MSC_RDPS_WindU_AGL-40m_RLatLon0.09_PT018H.grib2 2026-04-10 02:51 417K
20260410T00Z_MSC_RDPS_WindU_AGL-80m_RLatLon0.09_PT018H.grib2 2026-04-10 02:51 416K
20260410T00Z_MSC_RDPS_WindU_IsbL-0001_RLatLon0.09_PT018H.grib2 2026-04-10 02:51 268K
20260410T00Z_MSC_RDPS_WindU_IsbL-0005_RLatLon0.09_PT018H.grib2 2026-04-10 02:51 243K
20260410T00Z_MSC_RDPS_WindU_IsbL-0010_RLatLon0.09_PT018H.grib2 2026-04-10 02:51 251K
20260410T00Z_MSC_RDPS_WindU_IsbL-0020_RLatLon0.09_PT018H.grib2 2026-04-10 02:51 348K
20260410T00Z_MSC_RDPS_WindU_IsbL-0030_RLatLon0.09_PT018H.grib2 2026-04-10 02:51 349K
20260410T00Z_MSC_RDPS_WindU_IsbL-0050_RLatLon0.09_PT018H.grib2 2026-04-10 02:51 290K
20260410T00Z_MSC_RDPS_WindU_IsbL-0100_RLatLon0.09_PT018H.grib2 2026-04-10 02:51 343K
20260410T00Z_MSC_RDPS_WindU_IsbL-0150_RLatLon0.09_PT018H.grib2 2026-04-10 02:51 390K
20260410T00Z_MSC_RDPS_WindU_IsbL-0175_RLatLon0.09_PT018H.grib2 2026-04-10 02:51 417K
20260410T00Z_MSC_RDPS_WindU_IsbL-0200_RLatLon0.09_PT018H.grib2 2026-04-10 02:51 435K
20260410T00Z_MSC_RDPS_WindU_IsbL-0225_RLatLon0.09_PT018H.grib2 2026-04-10 02:51 440K
20260410T00Z_MSC_RDPS_WindU_IsbL-0250_RLatLon0.09_PT018H.grib2 2026-04-10 02:51 439K
20260410T00Z_MSC_RDPS_WindU_IsbL-0275_RLatLon0.09_PT018H.grib2 2026-04-10 02:51 354K
20260410T00Z_MSC_RDPS_WindU_IsbL-0300_RLatLon0.09_PT018H.grib2 2026-04-10 02:51 351K
20260410T00Z_MSC_RDPS_WindU_IsbL-0350_RLatLon0.09_PT018H.grib2 2026-04-10 02:51 359K
20260410T00Z_MSC_RDPS_WindU_IsbL-0400_RLatLon0.09_PT018H.grib2 2026-04-10 02:51 363K
20260410T00Z_MSC_RDPS_WindU_IsbL-0450_RLatLon0.09_PT018H.grib2 2026-04-10 02:51 365K
20260410T00Z_MSC_RDPS_WindU_IsbL-0500_RLatLon0.09_PT018H.grib2 2026-04-10 02:51 470K
20260410T00Z_MSC_RDPS_WindU_IsbL-0550_RLatLon0.09_PT018H.grib2 2026-04-10 02:51 470K
20260410T00Z_MSC_RDPS_WindU_IsbL-0600_RLatLon0.09_PT018H.grib2 2026-04-10 02:51 479K
20260410T00Z_MSC_RDPS_WindU_IsbL-0650_RLatLon0.09_PT018H.grib2 2026-04-10 02:51 496K
20260410T00Z_MSC_RDPS_WindU_IsbL-0700_RLatLon0.09_PT018H.grib2 2026-04-10 02:51 516K
20260410T00Z_MSC_RDPS_WindU_IsbL-0750_RLatLon0.09_PT018H.grib2 2026-04-10 02:51 544K
20260410T00Z_MSC_RDPS_WindU_IsbL-0800_RLatLon0.09_PT018H.grib2 2026-04-10 02:51 585K
20260410T00Z_MSC_RDPS_WindU_IsbL-0850_RLatLon0.09_PT018H.grib2 2026-04-10 02:51 635K
20260410T00Z_MSC_RDPS_WindU_IsbL-0875_RLatLon0.09_PT018H.grib2 2026-04-10 02:51 652K
20260410T00Z_MSC_RDPS_WindU_IsbL-0900_RLatLon0.09_PT018H.grib2 2026-04-10 02:51 661K
20260410T00Z_MSC_RDPS_WindU_IsbL-0925_RLatLon0.09_PT018H.grib2 2026-04-10 02:51 665K
20260410T00Z_MSC_RDPS_WindU_IsbL-0950_RLatLon0.09_PT018H.grib2 2026-04-10 02:51 662K
20260410T00Z_MSC_RDPS_WindU_IsbL-0970_RLatLon0.09_PT018H.grib2 2026-04-10 02:51 655K
20260410T00Z_MSC_RDPS_WindU_IsbL-0985_RLatLon0.09_PT018H.grib2 2026-04-10 02:51 651K
20260410T00Z_MSC_RDPS_WindU_IsbL-1000_RLatLon0.09_PT018H.grib2 2026-04-10 02:51 649K
20260410T00Z_MSC_RDPS_WindU_IsbL-1015_RLatLon0.09_PT018H.grib2 2026-04-10 02:51 642K
20260410T00Z_MSC_RDPS_WindV_AGL-10m_RLatLon0.09_PT018H.grib2 2026-04-10 02:51 380K
20260410T00Z_MSC_RDPS_WindV_AGL-120m_RLatLon0.09_PT018H.grib2 2026-04-10 02:51 414K
20260410T00Z_MSC_RDPS_WindV_AGL-40m_RLatLon0.09_PT018H.grib2 2026-04-10 02:51 415K
20260410T00Z_MSC_RDPS_WindV_AGL-80m_RLatLon0.09_PT018H.grib2 2026-04-10 02:51 415K
20260410T00Z_MSC_RDPS_WindV_IsbL-0001_RLatLon0.09_PT018H.grib2 2026-04-10 02:51 253K
20260410T00Z_MSC_RDPS_WindV_IsbL-0005_RLatLon0.09_PT018H.grib2 2026-04-10 02:51 242K
20260410T00Z_MSC_RDPS_WindV_IsbL-0010_RLatLon0.09_PT018H.grib2 2026-04-10 02:51 354K
20260410T00Z_MSC_RDPS_WindV_IsbL-0020_RLatLon0.09_PT018H.grib2 2026-04-10 02:51 381K
20260410T00Z_MSC_RDPS_WindV_IsbL-0030_RLatLon0.09_PT018H.grib2 2026-04-10 02:51 382K
20260410T00Z_MSC_RDPS_WindV_IsbL-0050_RLatLon0.09_PT018H.grib2 2026-04-10 02:51 406K
20260410T00Z_MSC_RDPS_WindV_IsbL-0100_RLatLon0.09_PT018H.grib2 2026-04-10 02:51 337K
20260410T00Z_MSC_RDPS_WindV_IsbL-0150_RLatLon0.09_PT018H.grib2 2026-04-10 02:51 387K
20260410T00Z_MSC_RDPS_WindV_IsbL-0175_RLatLon0.09_PT018H.grib2 2026-04-10 02:51 321K
20260410T00Z_MSC_RDPS_WindV_IsbL-0200_RLatLon0.09_PT018H.grib2 2026-04-10 02:51 335K
20260410T00Z_MSC_RDPS_WindV_IsbL-0225_RLatLon0.09_PT018H.grib2 2026-04-10 02:51 338K
20260410T00Z_MSC_RDPS_WindV_IsbL-0250_RLatLon0.09_PT018H.grib2 2026-04-10 02:51 340K
20260410T00Z_MSC_RDPS_WindV_IsbL-0275_RLatLon0.09_PT018H.grib2 2026-04-10 02:51 377K
20260410T00Z_MSC_RDPS_WindV_IsbL-0300_RLatLon0.09_PT018H.grib2 2026-04-10 02:51 374K
20260410T00Z_MSC_RDPS_WindV_IsbL-0350_RLatLon0.09_PT018H.grib2 2026-04-10 02:51 355K
20260410T00Z_MSC_RDPS_WindV_IsbL-0400_RLatLon0.09_PT018H.grib2 2026-04-10 02:51 383K
20260410T00Z_MSC_RDPS_WindV_IsbL-0450_RLatLon0.09_PT018H.grib2 2026-04-10 02:51 360K
20260410T00Z_MSC_RDPS_WindV_IsbL-0500_RLatLon0.09_PT018H.grib2 2026-04-10 02:51 363K
20260410T00Z_MSC_RDPS_WindV_IsbL-0550_RLatLon0.09_PT018H.grib2 2026-04-10 02:51 364K
20260410T00Z_MSC_RDPS_WindV_IsbL-0600_RLatLon0.09_PT018H.grib2 2026-04-10 02:51 476K
20260410T00Z_MSC_RDPS_WindV_IsbL-0650_RLatLon0.09_PT018H.grib2 2026-04-10 02:51 492K
20260410T00Z_MSC_RDPS_WindV_IsbL-0700_RLatLon0.09_PT018H.grib2 2026-04-10 02:51 512K
20260410T00Z_MSC_RDPS_WindV_IsbL-0750_RLatLon0.09_PT018H.grib2 2026-04-10 02:51 540K
20260410T00Z_MSC_RDPS_WindV_IsbL-0800_RLatLon0.09_PT018H.grib2 2026-04-10 02:51 582K
20260410T00Z_MSC_RDPS_WindV_IsbL-0850_RLatLon0.09_PT018H.grib2 2026-04-10 02:51 632K
20260410T00Z_MSC_RDPS_WindV_IsbL-0875_RLatLon0.09_PT018H.grib2 2026-04-10 02:51 650K
20260410T00Z_MSC_RDPS_WindV_IsbL-0900_RLatLon0.09_PT018H.grib2 2026-04-10 02:51 657K
20260410T00Z_MSC_RDPS_WindV_IsbL-0925_RLatLon0.09_PT018H.grib2 2026-04-10 02:51 662K
20260410T00Z_MSC_RDPS_WindV_IsbL-0950_RLatLon0.09_PT018H.grib2 2026-04-10 02:51 657K
20260410T00Z_MSC_RDPS_WindV_IsbL-0970_RLatLon0.09_PT018H.grib2 2026-04-10 02:51 651K
20260410T00Z_MSC_RDPS_WindV_IsbL-0985_RLatLon0.09_PT018H.grib2 2026-04-10 02:51 648K
20260410T00Z_MSC_RDPS_WindV_IsbL-1000_RLatLon0.09_PT018H.grib2 2026-04-10 02:51 645K
20260410T00Z_MSC_RDPS_WindV_IsbL-1015_RLatLon0.09_PT018H.grib2 2026-04-10 02:51 639K